Location: New Plymouth
(39.0670°S, 174.0830°E)
Time: 00:42:20
(UTC+13:00)

ISS - Pass Details

Date: 02 February 2019
Orbit: 403 x 411 km, 51.6° (Epoch: 21 February)

Event Time Altitude Azimuth Distance (km) Brightness Sun altitude
Exits shadow 04:31:20 65° 198° (SSW) 461 -3.6 -20.7°
Drops below altitude 10° 04:34:32 10° 133° (SE) 1,498 0.3 -20.3°
Sets 04:36:39 0° 130° (SE) 2,364 1.7 -20.0°
